Stations météo

réclame
Mon MeteoGroup
Brindisi, Italie (16320): Température de l'air & dewpoint: 15.06.2018 20:00:00 - 21.06.2018 20:00:00 (CEST)Brindisi, Italie (16320): Vitesse du vent: 15.06.2018 20:00:00 - 21.06.2018 20:00:00 (CEST)Brindisi, Italie (16320): Direction du vent: 15.06.2018 20:00:00 - 21.06.2018 20:00:00 (CEST)Brindisi, Italie (16320): reduced air pressure: 15.06.2018 20:00:00 - 21.06.2018 20:00:00 (CEST)Brindisi, Italie (16320): visibility: 15.06.2018 20:00:00 - 21.06.2018 20:00:00 (CEST)Brindisi, Italie (16320): Quantités de précipitations: 15.06.2018 20:00:00 - 21.06.2018 20:00:00 (CEST)
Date & Time tt [°C] td [°C] ff [km/h] ff [knt] dd ppp [hPa] vv [km] rr [mm]
21.06.2018 20:00:00 - - - - - - - -
21.06.2018 19:00:00 25,0 22,0 9 5 N - 10 -
21.06.2018 18:00:00 25,0 22,0 11 6 N - 10 -
21.06.2018 17:00:00 25,3 21,6 11 6 N 1014,7 10 0,0
21.06.2018 16:00:00 25,0 21,0 13 7 N - 10 -
21.06.2018 15:00:00 26,0 21,0 16 9 N - 10 -
21.06.2018 14:00:00 25,8 21,5 13 7 N 1016,1 20 -
21.06.2018 13:00:00 26,0 22,0 18 10 N - 10 -
21.06.2018 12:00:00 26,0 21,0 18 10 N - 10 -
21.06.2018 11:00:00 25,0 21,6 21 11 N 1017,1 10 0,0
21.06.2018 10:00:00 24,0 21,0 16 9 NW - 10 -
21.06.2018 09:00:00 24,0 20,0 18 10 NW - 10 -
21.06.2018 08:00:00 24,5 20,7 16 9 NW 1016,9 10 -
21.06.2018 07:00:00 22,0 20,0 8 4 WNW - 10 -
21.06.2018 06:00:00 21,0 20,0 4 2 W - 10 -
21.06.2018 05:00:00 21,4 20,1 5 3 WNW 1016,9 - 0,0
21.06.2018 04:00:00 23,0 21,0 5 3 W - 10 -
21.06.2018 03:00:00 23,0 22,0 9 5 WNW - 10 -
21.06.2018 02:00:00 23,9 22,2 11 6 NW 1017,4 10 -
21.06.2018 01:00:00 24,0 22,0 9 5 NW - 10 -
21.06.2018 00:00:00 23,0 21,0 8 4 NW - 10 -
20.06.2018 23:00:00 24,5 21,5 8 4 NW 1017,9 10 0,0
20.06.2018 22:00:00 25,0 20,0 5 3 NNW - 10 -
20.06.2018 21:00:00 25,0 20,0 11 6 NNW - 10 -
20.06.2018 20:00:00 25,0 19,5 9 5 NNW 1017,1 10 -
20.06.2018 19:00:00 25,0 18,0 13 7 NW - 10 -
20.06.2018 18:00:00 26,0 16,0 13 7 NNW - 10 -
20.06.2018 17:00:00 26,4 15,3 15 8 W 1017,1 10 0,0
20.06.2018 16:00:00 26,0 21,0 11 6 N - 10 -
20.06.2018 15:00:00 26,0 21,0 15 8 NE - 10 -
20.06.2018 14:00:00 26,0 20,7 16 9 NNE 1017,2 10 -
20.06.2018 13:00:00 26,0 21,0 15 8 NNE - 10 -
20.06.2018 12:00:00 26,0 20,0 9 5 NNE - 10 -
20.06.2018 11:00:00 25,9 19,6 9 5 NNE 1018,0 10 0,0
20.06.2018 10:00:00 25,0 22,0 9 5 NNE - 10 -
20.06.2018 09:00:00 25,0 22,0 15 8 NW - 10 -
20.06.2018 08:00:00 24,1 20,7 21 11 NW 1017,4 10 -
20.06.2018 07:00:00 24,0 21,0 18 10 NW - 10 -
20.06.2018 06:00:00 24,0 21,0 15 8 NW - 10 -
20.06.2018 05:00:00 23,6 21,1 22 12 NW 1016,1 10 0,0
20.06.2018 04:00:00 24,0 21,0 18 10 NW - 10 -
20.06.2018 03:00:00 - - - - - - - -
20.06.2018 02:00:00 23,7 21,0 22 12 NW 1015,6 10 -
20.06.2018 01:00:00 24,0 22,0 18 10 NW - 10 -
20.06.2018 00:00:00 24,0 22,0 21 11 WNW - 10 -
19.06.2018 23:00:00 24,0 21,6 16 9 WNW 1015,9 10 0,0
19.06.2018 22:00:00 24,0 22,0 15 8 WNW - 10 -
19.06.2018 21:00:00 24,0 21,0 13 7 NW - 10 -
19.06.2018 20:00:00 24,9 20,2 15 8 NW 1014,6 10 -
19.06.2018 19:00:00 26,0 21,0 16 9 NNW - 10 -
19.06.2018 18:00:00 26,0 21,0 24 13 NW - 10 -
19.06.2018 17:00:00 26,4 21,1 26 14 NW 1014,0 10 0,0
19.06.2018 16:00:00 27,0 19,0 22 12 NNW - 10 -
19.06.2018 15:00:00 26,0 20,0 24 13 NNW - 10 -
19.06.2018 14:00:00 26,5 20,4 24 13 NNW 1014,2 10 -
19.06.2018 13:00:00 27,0 20,0 22 12 N - 10 -
19.06.2018 12:00:00 27,0 20,0 18 10 N - 10 -
19.06.2018 11:00:00 26,5 20,8 26 14 N 1014,0 10 0,0
19.06.2018 10:00:00 26,0 19,0 22 12 N - 10 -
19.06.2018 09:00:00 26,0 19,0 26 14 NNE - 10 -
19.06.2018 08:00:00 25,4 19,7 18 10 N 1012,7 10 -
19.06.2018 07:00:00 24,0 20,0 15 8 NNE - 10 -
19.06.2018 06:00:00 24,0 21,0 16 9 ENE - 10 -
19.06.2018 05:00:00 23,8 22,0 15 8 NNE 1011,4 10 0,0
19.06.2018 04:00:00 24,0 21,0 16 9 NW - 10 -
19.06.2018 03:00:00 24,0 21,0 16 9 NW - 10 -
19.06.2018 02:00:00 23,8 20,6 16 9 NW 1011,2 25 -
19.06.2018 01:00:00 23,0 20,0 16 9 NW - 10 -
19.06.2018 00:00:00 23,0 20,0 16 9 NW - 10 -
18.06.2018 23:00:00 23,5 20,5 9 5 WNW 1012,2 10 0,0
18.06.2018 22:00:00 24,0 20,0 16 9 NW - 10 -
18.06.2018 21:00:00 24,0 21,0 15 8 NW - 10 -
18.06.2018 20:00:00 24,4 20,8 15 8 NNW 1011,2 10 -
18.06.2018 19:00:00 25,0 21,0 16 9 NNW - 10 -
18.06.2018 18:00:00 25,0 21,0 21 11 NNW - 10 -
18.06.2018 17:00:00 26,0 21,1 22 12 NW 1010,5 10 0,0
18.06.2018 16:00:00 26,0 21,0 22 12 NW - 10 -
18.06.2018 15:00:00 25,0 21,0 24 13 NW - 10 -
18.06.2018 14:00:00 25,2 20,8 28 15 NW 1010,8 10 -
18.06.2018 13:00:00 26,0 21,0 24 13 NW - 10 -
18.06.2018 12:00:00 25,0 20,0 24 13 NNW - 10 -
18.06.2018 11:00:00 24,9 19,6 26 14 NW 1011,5 10 0,0
18.06.2018 10:00:00 24,0 19,0 22 12 NW - 10 -
18.06.2018 09:00:00 24,0 19,0 24 13 NW - 10 -
18.06.2018 08:00:00 23,3 18,9 22 12 NW 1010,9 10 -
18.06.2018 07:00:00 23,0 19,0 18 10 NW - 10 -
18.06.2018 06:00:00 22,0 19,0 18 10 NW - 10 -
18.06.2018 05:00:00 22,3 19,1 9 5 W 1010,5 10 0,0
18.06.2018 04:00:00 21,0 18,0 8 4 W - 10 -
18.06.2018 03:00:00 21,0 18,0 9 5 W - 10 -
18.06.2018 02:00:00 21,1 18,3 9 5 WSW 1010,9 10 -
18.06.2018 01:00:00 21,0 19,0 13 7 W - 10 -
18.06.2018 00:00:00 22,0 20,0 9 5 NW - 10 -
17.06.2018 23:00:00 22,2 19,8 11 6 W 1011,6 10 0,0
17.06.2018 22:00:00 23,0 19,0 9 5 WNW - 10 -
17.06.2018 21:00:00 23,0 19,0 11 6 NW - 10 -
17.06.2018 20:00:00 23,8 19,3 15 8 NW 1011,0 10 -
17.06.2018 19:00:00 24,0 20,0 18 10 NW - 10 -
17.06.2018 18:00:00 25,0 20,0 22 12 NNW - 10 -
17.06.2018 17:00:00 25,2 20,6 24 13 NW 1010,2 10 0,0
17.06.2018 16:00:00 25,0 20,0 26 14 NW - 10 -
17.06.2018 15:00:00 25,0 20,0 24 13 NW - 10 -
17.06.2018 14:00:00 25,1 19,3 26 14 NW 1010,8 10 -
17.06.2018 13:00:00 26,0 20,0 24 13 NNW - 10 -
17.06.2018 12:00:00 25,0 20,0 28 15 NW - 10 -
17.06.2018 11:00:00 25,0 20,2 29 16 NW 1011,0 10 0,0
17.06.2018 10:00:00 23,0 18,0 29 16 NW - 10 -
17.06.2018 09:00:00 24,0 18,0 31 17 NW - 10 -
17.06.2018 08:00:00 23,1 17,9 28 15 NW 1010,2 10 -
17.06.2018 07:00:00 22,0 17,0 18 10 WNW - 10 -
17.06.2018 06:00:00 21,0 16,0 13 7 W - 10 -
17.06.2018 05:00:00 20,0 16,5 13 7 WSW 1009,3 10 0,0
17.06.2018 04:00:00 - - - - - - - -
17.06.2018 03:00:00 21,0 17,0 13 7 W - 10 -
17.06.2018 02:00:00 22,7 18,9 18 10 NW 1009,3 10 -
17.06.2018 01:00:00 22,0 18,0 11 6 W - 10 -
17.06.2018 00:00:00 23,0 19,0 16 9 NW - 10 -
16.06.2018 23:00:00 22,6 17,8 18 10 NW 1009,7 10 0,0
16.06.2018 22:00:00 23,0 19,0 16 9 NW - 10 -
16.06.2018 21:00:00 23,0 18,0 18 10 NW - 10 -
16.06.2018 20:00:00 23,1 18,1 21 11 NW 1008,4 10 -
16.06.2018 19:00:00 23,0 18,0 22 12 NW - 10 -
16.06.2018 18:00:00 25,0 18,0 21 11 NW - 10 -
16.06.2018 17:00:00 23,9 18,1 22 12 NW 1007,8 10 0,0
16.06.2018 16:00:00 24,0 18,0 22 12 NNW - 10 -
16.06.2018 15:00:00 25,0 19,0 26 14 NW - 10 -
16.06.2018 14:00:00 24,6 18,5 26 14 NW 1008,2 10 -
16.06.2018 13:00:00 23,0 19,0 24 13 NNW - 10 -
16.06.2018 12:00:00 20,0 17,0 18 10 NW - 10 -
16.06.2018 11:00:00 22,3 19,0 16 9 NNW 1007,6 10 0,0
16.06.2018 10:00:00 21,0 18,0 31 17 WNW - 10 -
16.06.2018 09:00:00 23,0 19,0 26 14 WNW - 10 -
16.06.2018 08:00:00 24,4 17,6 15 8 N 1007,0 10 -
16.06.2018 07:00:00 23,0 18,0 26 14 WNW - 10 -
16.06.2018 06:00:00 22,0 18,0 31 17 WNW - 10 -
16.06.2018 05:00:00 21,8 18,5 26 14 NW 1006,0 10 0,0
16.06.2018 04:00:00 22,0 18,0 34 18 WNW - 10 -
16.06.2018 03:00:00 22,0 18,0 29 16 WNW - 10 -
16.06.2018 02:00:00 23,0 19,6 29 16 NW 1006,3 20 -
16.06.2018 01:00:00 23,0 19,0 24 13 NW - 10 -
16.06.2018 00:00:00 23,0 19,0 22 12 NNW - 10 -
15.06.2018 23:00:00 23,0 18,1 26 14 NW 1006,1 10 0,0
15.06.2018 22:00:00 23,0 18,0 24 13 NW - 10 -
15.06.2018 21:00:00 23,0 18,0 24 13 NNW - 10 -
15.06.2018 20:00:00 23,4 18,0 22 12 NW 1006,2 10 -

tt = Température de l'air
td = dewpoint
ff = Vitesse du vent
dd = Direction du vent
ppp = reduced air pressure
vv = visibility
rr = Quantités de précipitations

stations d'obs. à proximité